Weather History for Lebanon, NH

Change the Weather History Date:

Saturday, July 13, 2013

  Actual Average Record
Temperature  
Mean Temperature 68 °F -  
Max Temperature 80 °F 81 °F 93 °F (1987)
Min Temperature 57 °F 56 °F 43 °F (1939)
Cooling Degree Days 4    
Growing Degree Days 18 (Base 50)    
Moisture  
Dew Point 62 °F    
Average Humidity 80    
Maximum Humidity 97    
Minimum Humidity 52    
Precipitation  
Precipitation 0.00 in - - ()
Sea Level Pressure  
Sea Level Pressure 30.27 in    
Wind  
Wind Speed 1 mph (SW)    
Max Wind Speed 7 mph    
Max Gust Speed -    
Visibility 9 miles    
Events      
Averages and records for this station are not official NWS values.
T = Trace of Precipitation, MM = Missing Value Source: NWS Daily Summary

Daily Weather History Graph

Daily Weather History Graph

Search for Another Location

Airport:

Trip Planner

Search our weather history database for the weather conditions in past years. The results will help you decide how hot, cold, wet, or windy it might be!

Date:

Astronomy

Jul. 13, 2013 Rise Set
Actual Time 5:20 AM EDT 8:29 PM EDT
Civil Twilight 4:45 AM EDT 9:04 PM EDT
Nautical Twilight 4:00 AM EDT 9:48 PM EDT
Astronomical Twilight 3:06 AM EDT 10:42 PM EDT
Moon 10:44 AM EDT (7/13) 10:56 PM EDT (7/13)
Length of Visible Light 16h 18m
Length of Day
15h 09m
Waxing Crescent, 25% of the Moon is Illuminated
Jul 13
Waxing Crescent
Jul 15
First Quarter
Jul 22
Full
Jul 29
Last Quarter
Aug 6
New

Hourly Weather History & Observations

Time (EDT) Temp. Heat Index Dew Point Humidity Pressure Visibility Wind Dir Wind Speed Gust Speed Precip Events Conditions
12:53 AM 62.1 °F - 60.1 °F 93% 30.21 in 10.0 mi Calm Calm - N/A   Clear
1:53 AM 61.0 °F - 59.0 °F 93% 30.22 in 10.0 mi Calm Calm - N/A   Clear
2:53 AM 60.1 °F - 57.9 °F 93% 30.23 in 10.0 mi Calm Calm - N/A   Clear
3:53 AM 60.1 °F - 57.9 °F 93% 30.23 in 10.0 mi Calm Calm - N/A   Clear
4:53 AM 57.9 °F - 57.0 °F 97% 30.25 in 10.0 mi Calm Calm - N/A   Clear
5:19 AM 59.0 °F - 57.2 °F 94% 30.27 in 10.0 mi Calm Calm - N/A   Scattered Clouds
5:28 AM 59.0 °F - 57.2 °F 94% 30.27 in 9.0 mi Calm Calm - N/A   Mostly Cloudy
5:48 AM 60.8 °F - 57.2 °F 88% 30.27 in 1.5 mi Calm Calm - N/A   Overcast
5:53 AM 60.1 °F - 59.0 °F 96% 30.25 in 1.0 mi Calm Calm - N/A   Overcast
6:53 AM 63.0 °F - 61.0 °F 93% 30.26 in 1.0 mi NE 4.6 mph - N/A   Overcast
7:53 AM 66.0 °F - 61.0 °F 84% 30.28 in 1.5 mi Calm Calm - N/A   Haze
7:57 AM 66.2 °F - 60.8 °F 83% 30.30 in 10.0 mi Calm Calm - N/A   Scattered Clouds
8:53 AM 69.1 °F - 62.1 °F 78% 30.28 in 10.0 mi WSW 3.5 mph - N/A   Overcast
9:53 AM 73.0 °F - 62.1 °F 68% 30.29 in 10.0 mi Calm Calm - N/A   Overcast
10:53 AM 73.0 °F - 62.1 °F 68% 30.29 in 10.0 mi Calm Calm - N/A   Overcast
11:53 AM 73.9 °F - 60.1 °F 62% 30.30 in 10.0 mi Variable 5.8 mph - N/A   Overcast
12:53 PM 73.9 °F - 60.1 °F 62% 30.30 in 10.0 mi Calm Calm - 0.00 in   Overcast
1:53 PM 80.1 °F 81.1 °F 61.0 °F 52% 30.28 in 10.0 mi North 4.6 mph - N/A   Overcast
2:53 PM 78.1 °F - 62.1 °F 58% 30.27 in 10.0 mi SW 5.8 mph - N/A   Overcast
3:53 PM 78.1 °F - 63.0 °F 60% 30.27 in 10.0 mi WSW 5.8 mph - N/A   Overcast
4:53 PM 78.1 °F - 64.0 °F 62% 30.27 in 10.0 mi SW 6.9 mph - N/A   Mostly Cloudy
5:53 PM 77.0 °F - 64.9 °F 66% 30.26 in 10.0 mi West 3.5 mph - N/A   Overcast
6:53 PM 75.9 °F - 68.0 °F 76% 30.26 in 10.0 mi South 4.6 mph - N/A   Overcast
7:51 PM 75.2 °F - 68.0 °F 78% 30.29 in 10.0 mi South 5.8 mph - N/A   Overcast
7:53 PM 75.9 °F - 68.0 °F 76% 30.27 in 10.0 mi SSW 5.8 mph - N/A   Overcast
8:53 PM 73.9 °F - 68.0 °F 82% 30.27 in 10.0 mi South 3.5 mph - N/A   Overcast
9:53 PM 73.0 °F - 68.0 °F 84% 30.27 in 10.0 mi South 4.6 mph - N/A   Overcast
10:53 PM 72.0 °F - 68.0 °F 87% 30.27 in 10.0 mi Calm Calm - N/A   Overcast
11:09 PM 71.6 °F - 68.0 °F 88% 30.31 in 10.0 mi Calm Calm - N/A   Overcast
11:53 PM 71.1 °F - 68.0 °F 90% 30.28 in 10.0 mi Calm Calm - N/A   Overcast